Location: ?????
(32.7281°N, 34.9563°E)
Time: 18:20:57
(UTC+00:00)

CZ-4 R/B - Pass Details

Date: 29 October 2020
Orbit: 532 x 598 km, 97.7° (Epoch: 30 November)

Event Time Altitude Azimuth Distance (km) Brightness Sun altitude
Rises 17:19:31 0° 205° (SSW) 2,709 5.1 -31.6°
Reaches altitude 10° 17:22:26 10° 229° (SW) 1,808 4.4 -32.2°
Maximum altitude 17:24:42 15° 265° (W) 1,509 4.3 -32.7°
Drops below altitude 10° 17:26:59 10° 301° (WNW) 1,799 4.6 -33.1°
Sets 17:29:52 0° 325° (NW) 2,687 5.3 -33.8°
